Green Bay, WI

4:10 PM CDT on May 28, 2017 (GMT -0500)
Austin Straubel International

Weather History for KGRB - June, 2013

Change the Weather History Date:

Wednesday, June 19, 2013

  Actual Average Record
Temperature  
Mean Temperature 61 °F 66 °F  
Max Temperature 77 °F 77 °F 95 °F (1995)
Min Temperature 45 °F 55 °F 43 °F (1958)
Degree Days  
Heating Degree Days 4 2  
Month to date heating degree days 72 74  
Since 1 June heating degree days 72 74  
Since 1 July heating degree days 7714 7937  
Cooling Degree Days 0 3  
Month to date cooling degree days 22 39  
Year to date cooling degree days 60 57  
Since 1 June cooling degree days 22 39  
Growing Degree Days 11 (Base 50)    
Moisture  
Dew Point 47 °F    
Average Humidity 64    
Maximum Humidity 93    
Minimum Humidity 35    
Precipitation  
Precipitation 0.00 in 0.13 in 1.20 in (1961)
Month to date precipitation 2.10 2.48  
Year to date precipitation 15.87 12.13  
Snow  
Snow 0.00 in 0.00 in 0.00 in ()
Month to date snowfall 0.0 0.0  
Since 1 June snowfall 0.0 0.0  
Since 1 July snowfall 74.2 51.4  
Snow Depth 0.00 in    
Sea Level Pressure  
Sea Level Pressure 30.12 in    
Wind  
Wind Speed 5 mph (SSW)    
Max Wind Speed 14 mph    
Max Gust Speed 18 mph    
Visibility 10 miles    
Events      
T = Trace of Precipitation, MM = Missing Value Source: NWS Daily Summary

Daily Weather History Graph

Daily Weather History Graph

Search for Another Location

Airport or City:

Trip Planner

Search our weather history database for the weather conditions in past years. The results will help you decide how hot, cold, wet, or windy it might be!

Date:

Astronomy

Jun. 19, 2013 Rise Set
Actual Time 5:07 AM CDT 8:40 PM CDT
Civil Twilight 4:30 AM CDT 9:17 PM CDT
Nautical Twilight 3:41 AM CDT 10:06 PM CDT
Astronomical Twilight 2:38 AM CDT 11:09 PM CDT
Moon 4:26 PM CDT (6/19) 1:59 AM CDT (6/19)
Length of Visible Light 16h 46m
Length of Day
15h 33m
Waxing Gibbous, 80% of the Moon is Illuminated
Jun 19
Waxing Gibbous
Jun 23
Full
Jun 29
Last Quarter
Jul 8
New
Jul 15
First Quarter

Hourly Weather History & Observations

Time (CDT) Temp. Windchill Dew Point Humidity Pressure Visibility Wind Dir Wind Speed Gust Speed Precip Events Conditions
12:53 AM 48.9 °F - 46.0 °F 90% 30.12 in 10.0 mi WNW 4.6 mph - N/A   Clear
1:53 AM 48.0 °F - 45.0 °F 89% 30.13 in 10.0 mi Calm Calm - N/A   Clear
2:53 AM 48.0 °F - 44.1 °F 86% 30.13 in 10.0 mi Calm Calm - N/A   Clear
3:53 AM 46.0 °F 43.9 °F 44.1 °F 93% 30.14 in 10.0 mi WNW 4.6 mph - N/A   Clear
4:53 AM 45.0 °F - 43.0 °F 93% 30.14 in 10.0 mi Calm Calm - N/A   Clear
5:53 AM 46.9 °F - 45.0 °F 93% 30.14 in 10.0 mi Calm Calm - N/A   Clear
6:53 AM 52.0 °F - 46.9 °F 83% 30.15 in 10.0 mi SE 3.5 mph - N/A   Clear
7:53 AM 57.0 °F - 46.9 °F 69% 30.16 in 10.0 mi South 3.5 mph - N/A   Clear
8:53 AM 62.1 °F - 46.9 °F 58% 30.17 in 10.0 mi SSE 4.6 mph - N/A   Clear
9:53 AM 66.0 °F - 46.0 °F 48% 30.16 in 10.0 mi South 6.9 mph - N/A   Clear
10:53 AM 68.0 °F - 48.9 °F 50% 30.16 in 10.0 mi Variable 3.5 mph - N/A   Clear
11:53 AM 71.1 °F - 48.0 °F 44% 30.14 in 10.0 mi SW 11.5 mph 18.4 mph N/A   Clear
12:53 PM 73.0 °F - 45.0 °F 37% 30.13 in 10.0 mi South 9.2 mph - N/A   Clear
1:53 PM 73.9 °F - 46.9 °F 38% 30.11 in 10.0 mi North - - N/A   Clear
2:53 PM 73.9 °F - 46.9 °F 38% 30.09 in 10.0 mi Variable 5.8 mph - N/A   Clear
3:53 PM 75.0 °F - 48.0 °F 38% 30.09 in 10.0 mi SSW 8.1 mph - N/A   Clear
4:53 PM 77.0 °F - 51.1 °F 40% 30.08 in 10.0 mi Variable 6.9 mph - N/A   Clear
5:53 PM 75.9 °F - 50.0 °F 40% 30.07 in 10.0 mi SSW 6.9 mph - N/A   Partly Cloudy
6:53 PM 75.9 °F - 48.9 °F 38% 30.07 in 10.0 mi West 5.8 mph - N/A   Partly Cloudy
7:53 PM 73.0 °F - 52.0 °F 48% 30.07 in 10.0 mi South 4.6 mph - N/A   Scattered Clouds
8:53 PM 66.9 °F - 48.9 °F 52% 30.08 in 10.0 mi SSE 9.2 mph - N/A   Clear
9:53 PM 64.9 °F - 46.9 °F 52% 30.10 in 10.0 mi South 9.2 mph - N/A   Mostly Cloudy
10:53 PM 62.1 °F - 46.9 °F 58% 30.10 in 10.0 mi South 5.8 mph - N/A   Clear
11:53 PM 62.1 °F - 46.0 °F 56% 30.10 in 10.0 mi South 6.9 mph - N/A   Clear